Meath Environmental Platform

Observations for Trim Market St

Time AQI Temp °C Hum % Pres Pa CO μg/m³ H₂S μg/m³ NO μg/m³ NO₂ μg/m³ O₃ μg/m³ SO₂ μg/m³ PM1 μg/m³ PM2.5 μg/m³ PM10 μg/m³
Wednesday 26 August 2026
13:27 2 21.8 74 23,754 0.26 0 2.43 13.25 39.81 0 7.13 8.66 13.58
13:26 2 21.8 74 22,793 0.34 0 2.86 14.22 40.18 0 7.13 11.53 16
13:25 2 21.7 74 21,589 0.43 0 2.36 14.23 48.36 0 7.13 8.64 12.36
13:24 2 21.6 74 20,970 0.37 0 1.63 13.47 42.4 0 7.13 8.16 12.36
13:23 2 21.5 74 20,166 0.22 0 1.75 12.6 48 0 7.84 8.15 12.96
13:22 2 21.5 74 18,786 0.24 0 1.34 12.7 41.3 0 9.98 11.5 17.77
13:21 2 21.4 74 16,900 0.26 0 1.58 13.06 40.4 0 9.26 13.41 19.56
13:20 2 21.4 74 14,695 0.26 0 1.3 13.46 39.71 0 9.26 10.04 14.74
13:19 2 21.3 74 13,305 0.22 0 1.73 12.48 41.91 0 7.13 10.04 14.13
13:18 2 21.2 75 12,298 0.21 0 1.05 13.4 40.96 0 7.13 8.11 12.33
13:17 2 21.2 75 11,392 0.22 0 1.18 13.04 40.3 0 9.26 10.02 14.72
13:16 2 21.1 75 10,485 0.2 0 0.92 17.93 56.18 0 7.84 9.06 13.52
13:14 2 21 75 9,418 0.19 0 1.1 14.73 41.95 0 8.55 10.02 14.11
13:11 2 20.8 75 8,782 0.22 0 1.17 12.77 51.73 0 9.26 11.93 16.5
13:10 2 20.8 75 9,016 0.23 0 1.08 11.61 42.61 0 7.84 9.05 12.91
13:06 2 20.7 75 10,568 0.17 0 0.95 11.8 41.66 0 8.55 9.05 12.91
13:05 2 20.7 75 11,589 0.19 0 0.93 11.8 41.66 0 7.84 9.05 13.51
13:04 2 20.7 75 11,565 0.19 0 0.9 12.04 41.69 0 9.26 10.49 15.3
12:57 2 20.6 75 7,976 0.15 0 1.11 12.15 42.4 0 8.55 9.51 14.68
12:56 2 20.5 75 7,802 0.16 0 1.07 10.79 43.45 0 8.55 10.47 16.47